Home > Weather > Santa Rosa > Past weeks

Flag for USA Past Weather in Santa Rosa, California, USA — Yesterday and Last 2 Weeks

Now
51 °F

Clear.


Feels Like: 51 °F
Forecast: 52 / 87 °F
Wind: No wind

Location: Santa Rosa Sonoma County Airport

Current Time: Jul 25, 2016 at 5:08:40 AM

Latest Report: Jul 25, 2016 at 3:53 AM


Visibility: 8 mi

Pressure: 29.87 "Hg

Humidity: 89%

Dew Point: 48 °F

Location of Santa RosaLocation

Past Weather in Santa Rosa — Graph

°F

Santa Rosa Temperature Yesterday

Maximum temperature yesterday: 90 °F (at 12:53 PM)
Minimum temperature yesterday: 51 °F (at 4:53 AM)
Average temperature yesterday: 68 °F

High & Low Weather Summary for the Past Weeks

 TemperatureHumidityPressure
High96 °F (Jul 13, 4:53 PM)100% (Jul 15, 1:53 AM)30.08 "Hg (Jul 15, 1:53 AM)
Low48 °F (Jul 22, 4:53 AM)14% (Jul 10, 3:53 PM)29.78 "Hg (Jul 23, 6:53 PM)
Average66 °F64%29.93 "Hg
* Reported Jul 10 3:53 AM — Jul 25 3:53 AM, Santa Rosa, Weather by CustomWeather, © 2016

Note: Actual official high and low records may vary slightly from our data, if they occured in-between our weather recording intervals... More about our weather records

Advertising

Santa Rosa Weather History for the Previous 24 Hours

Scroll right to see more
 ConditionsComfort  
Time TempWeatherWind HumidityBarometerVisibility
3:53 AM
Mon, Jul 25
51 °FClear.No wind89%29.87 "Hg8 mi
2:53 AM52 °FClear.No wind89%29.87 "Hg8 mi
1:53 AM51 °FClear.No wind92%29.87 "Hg7 mi
12:53 AM53 °FClear.3 mph89%29.87 "Hg7 mi
11:53 PM
Sun, Jul 24
54 °FClear.No wind86%29.86 "Hg8 mi
10:53 PM55 °FClear.7 mph87%29.85 "Hg8 mi
9:53 PM57 °FClear.6 mph81%29.84 "Hg8 mi
8:53 PM60 °FSunny.6 mph72%29.82 "Hg8 mi
7:53 PM67 °FSunny.7 mph59%29.81 "Hg8 mi
6:53 PM74 °FSunny.8 mph46%29.80 "Hg10 mi
5:53 PM82 °FSunny.13 mph38%29.80 "Hg9 mi
4:53 PM86 °FSunny.9 mph31%29.79 "Hg10 mi
3:53 PM88 °FSunny.10 mph28%29.79 "Hg10 mi
2:53 PM90 °FSunny.10 mph27%29.80 "Hg10 mi
1:53 PM90 °FSunny.9 mph27%29.80 "Hg10 mi
12:53 PM90 °FSunny.6 mph29%29.81 "Hg10 mi
11:53 AM84 °FSunny.5 mph35%29.81 "Hg10 mi
10:53 AM77 °FSunny.3 mph44%29.83 "Hg9 mi
9:53 AM71 °FSunny.5 mph53%29.83 "Hg9 mi
8:53 AM66 °FSunny.3 mph61%29.83 "Hg8 mi
7:53 AM59 °FSunny.No wind72%29.82 "Hg10 mi
6:53 AM53 °FFog.No wind86%29.81 "Hg6 mi
5:53 AM53 °FClear.No wind86%29.80 "Hg8 mi
Weather by CustomWeather, © 2016

See weather overviewHow to use our weather pages